Location: ??????
(41.3747°N, 22.5491°E)
Time: 05:02:12
(UTC+00:00)

Cosmos 2228 Rocket - Pass Details

Date: 01 December 2020
Orbit: 618 x 652 km, 82.5° (Epoch: 20 January)

Event Time Altitude Azimuth Distance (km) Brightness Sun altitude
Rises 15:48:08 0° 149° (SSE) 2,950 6.4 -8.8°
Reaches altitude 10° 15:50:54 10° 132° (SE) 2,040 5.5 -9.3°
Maximum altitude 15:54:05 19° 87° (E) 1,522 4.5 -9.9°
Enters shadow 15:57:00 11° 44° (NE) 1,961 5.1 -10.4°
